When you browse on this site, cookies collect data to enhance your experience and personalize the content and advertising you see.
Visit our Privacy Policy to learn more. By continuing to use the site, you agree to this use of cookies and data.
  • In Romania
  • List of Countries
  • For 7 days
  • Water Temperature
  • Weather Map
  • Weather Widgets
  • user-avatar
    Login

    Hourly Weather Krasnystaw

    Today, 21 October, Monday

    Time Temperature Precipitation Wind Pressure Humidity
    00:00 +14°C° 0 mm 3 mps 747 mmHg 76%
    01:00 +13°C° 0 mm 3 mps 747 mmHg 77%
    02:00 +13°C° 0 mm 3 mps 747 mmHg 78%
    03:00 +13°C° 0 mm 3 mps 747 mmHg 79%
    04:00 +13°C° 0 mm 3 mps 747 mmHg 80%
    05:00 +12°C° 0 mm 3 mps 746 mmHg 81%
    06:00 +13°C° 0 mm 3 mps 747 mmHg 80%
    07:00 +13°C° 0 mm 3 mps 747 mmHg 79%
    08:00 +13°C° 0 mm 3 mps 747 mmHg 78%
    09:00 +15°C° 0 mm 4 mps 747 mmHg 71%
    10:00 +18°C° 0 mm 4 mps 747 mmHg 64%
    11:00 +20°C° 0 mm 4 mps 747 mmHg 56%
    12:00 +21°C° 0 mm 4 mps 748 mmHg 54%
    13:00 +22°C° 0 mm 3 mps 748 mmHg 53%
    14:00 +24°C° 0 mm 3 mps 748 mmHg 51%
    15:00 +23°C° 0 mm 2 mps 748 mmHg 55%
    16:00 +21°C° 0 mm 1 mps 748 mmHg 60%
    17:00 +20°C° 0 mm 1 mps 748 mmHg 64%
    18:00 +19°C° 0 mm 1 mps 749 mmHg 68%
    19:00 +18°C° 0 mm 1 mps 749 mmHg 71%
    20:00 +16°C° 0 mm 1 mps 749 mmHg 75%
    21:00 +16°C° 0 mm 1 mps 749 mmHg 77%
    22:00 +15°C° 0 mm 1 mps 749 mmHg 79%
    23:00 +15°C° 0 mm 1 mps 750 mmHg 81%

    Tomorrow, 22 October, Tuesday

    Time Temperature Precipitation Wind Pressure Humidity
    00:00 +15°C° 0 mm 1 mps 750 mmHg 83%
    01:00 +14°C° 0 mm 1 mps 750 mmHg 84%
    02:00 +14°C° 0 mm 1 mps 750 mmHg 85%
    03:00 +14°C° 0 mm 1 mps 750 mmHg 86%
    04:00 +14°C° 0 mm 1 mps 750 mmHg 86%
    05:00 +13°C° 0 mm 1 mps 750 mmHg 87%
    06:00 +13°C° 0 mm 1 mps 750 mmHg 86%
    07:00 +13°C° 0 mm 1 mps 751 mmHg 86%
    08:00 +14°C° 0 mm 1 mps 751 mmHg 85%
    09:00 +15°C° 0 mm 1 mps 751 mmHg 78%
    10:00 +18°C° 0 mm 1 mps 751 mmHg 71%
    11:00 +19°C° 0 mm 2 mps 751 mmHg 63%
    12:00 +20°C° 0 mm 2 mps 751 mmHg 61%
    13:00 +21°C° 0 mm 2 mps 751 mmHg 58%
    14:00 +23°C° 0 mm 2 mps 751 mmHg 56%
    15:00 +21°C° 0 mm 2 mps 750 mmHg 60%
    16:00 +20°C° 0 mm 2 mps 750 mmHg 65%
    17:00 +19°C° 0 mm 2 mps 750 mmHg 69%
    18:00 +18°C° 0 mm 2 mps 750 mmHg 72%
    19:00 +18°C° 0 mm 1 mps 750 mmHg 74%
    20:00 +16°C° 0 mm 1 mps 750 mmHg 77%
    21:00 +16°C° 0 mm 1 mps 750 mmHg 79%
    22:00 +15°C° 0 mm 2 mps 750 mmHg 81%
    23:00 +15°C° 0 mm 2 mps 750 mmHg 83%

    Day after tomorrow, 23 October, Wednesday

    Time Temperature Precipitation Wind Pressure Humidity
    00:00 +15°C° 0 mm 2 mps 750 mmHg 84%
    01:00 +14°C° 0 mm 2 mps 750 mmHg 86%
    02:00 +14°C° 0 mm 2 mps 750 mmHg 87%
    03:00 +14°C° 0 mm 2 mps 750 mmHg 88%
    04:00 +14°C° 0 mm 2 mps 750 mmHg 89%
    05:00 +13°C° 0 mm 2 mps 750 mmHg 90%
    06:00 +14°C° 0 mm 2 mps 750 mmHg 90%
    07:00 +14°C° 0 mm 2 mps 750 mmHg 91%
    08:00 +14°C° 0 mm 2 mps 750 mmHg 91%
    09:00 +15°C° 0 mm 2 mps 750 mmHg 87%
    10:00 +16°C° 0 mm 2 mps 750 mmHg 83%
    11:00 +17°C° 0 mm 2 mps 750 mmHg 78%
    12:00 +18°C° 0 mm 2 mps 750 mmHg 75%
    13:00 +18°C° 0 mm 2 mps 750 mmHg 72%
    14:00 +19°C° 0 mm 2 mps 750 mmHg 69%
    15:00 +18°C° 0 mm 2 mps 750 mmHg 72%
    16:00 +17°C° 0 mm 2 mps 749 mmHg 76%
    17:00 +16°C° 0 mm 2 mps 749 mmHg 79%
    18:00 +16°C° 0 mm 2 mps 749 mmHg 80%
    19:00 +15°C° 0 mm 2 mps 749 mmHg 82%
    20:00 +15°C° 0 mm 2 mps 749 mmHg 84%
    21:00 +14°C° 0 mm 2 mps 749 mmHg 86%
    22:00 +14°C° 0 mm 2 mps 749 mmHg 88%
    23:00 +13°C° 0 mm 2 mps 749 mmHg 90%

    24 October, Thursday

    Time Temperature Precipitation Wind Pressure Humidity
    00:00 +13°C° 0 mm 2 mps 749 mmHg 92%
    01:00 +13°C° 0 mm 2 mps 748 mmHg 93%
    02:00 +11°C° 0 mm 3 mps 748 mmHg 95%
    03:00 +11°C° 0 mm 3 mps 748 mmHg 95%
    04:00 +11°C° 0 mm 3 mps 748 mmHg 95%
    05:00 +11°C° 0 mm 3 mps 747 mmHg 96%
    06:00 +11°C° 0 mm 3 mps 747 mmHg 95%
    07:00 +12°C° 0 mm 4 mps 747 mmHg 95%
    08:00 +12°C° 0 mm 4 mps 747 mmHg 94%
    09:00 +14°C° 0 mm 5 mps 747 mmHg 86%
    10:00 +15°C° 0 mm 5 mps 747 mmHg 78%
    11:00 +17°C° 0 mm 5 mps 747 mmHg 70%
    12:00 +19°C° 0 mm 5 mps 746 mmHg 67%
    13:00 +20°C° 0 mm 5 mps 746 mmHg 63%
    14:00 +21°C° 0 mm 5 mps 746 mmHg 59%
    15:00 +20°C° 0 mm 5 mps 746 mmHg 64%
    16:00 +19°C° 0 mm 4 mps 745 mmHg 68%
    17:00 +18°C° 0 mm 4 mps 745 mmHg 72%
    18:00 +17°C° 0 mm 4 mps 745 mmHg 75%
    19:00 +17°C° 0 mm 4 mps 745 mmHg 78%
    20:00 +15°C° 0 mm 4 mps 745 mmHg 80%
    21:00 +14°C° 0 mm 4 mps 745 mmHg 81%
    22:00 +14°C° 0 mm 4 mps 745 mmHg 81%
    23:00 +13°C° 0 mm 4 mps 745 mmHg 82%

    25 October, Friday

    Time Temperature Precipitation Wind Pressure Humidity
    00:00 +13°C° 0 mm 3 mps 745 mmHg 82%
    01:00 +12°C° 0 mm 3 mps 745 mmHg 83%
    02:00 +12°C° 0 mm 3 mps 745 mmHg 84%
    03:00 +12°C° 0 mm 3 mps 746 mmHg 83%
    04:00 +13°C° 0 mm 2 mps 746 mmHg 82%
    05:00 +12°C° 0 mm 2 mps 746 mmHg 82%
    06:00 +12°C° 0 mm 2 mps 746 mmHg 81%
    07:00 +12°C° 0 mm 2 mps 746 mmHg 79%
    08:00 +12°C° 0 mm 2 mps 746 mmHg 78%
    09:00 +14°C° 0 mm 1 mps 746 mmHg 70%
    10:00 +16°C° 0 mm 1 mps 747 mmHg 63%
    11:00 +19°C° 0 mm 1 mps 747 mmHg 55%
    12:00 +20°C° 0 mm 1 mps 747 mmHg 52%
    13:00 +21°C° 0 mm 1 mps 747 mmHg 49%
    14:00 +21°C° 0 mm 2 mps 747 mmHg 46%
    15:00 +20°C° 0 mm 2 mps 747 mmHg 51%
    16:00 +19°C° 0 mm 2 mps 747 mmHg 56%
    17:00 +18°C° 0 mm 1 mps 747 mmHg 60%
    18:00 +18°C° 0 mm 1 mps 747 mmHg 64%
    19:00 +16°C° 0 mm 1 mps 748 mmHg 68%
    20:00 +15°C° 0 mm 1 mps 748 mmHg 72%
    21:00 +14°C° 0 mm 1 mps 748 mmHg 76%
    22:00 +14°C° 0 mm 1 mps 748 mmHg 80%
    23:00 +13°C° 0 mm 2 mps 748 mmHg 84%

    26 October, Saturday

    Time Temperature Precipitation Wind Pressure Humidity
    00:00 +13°C° 0 mm 1 mps 749 mmHg 86%
    01:00 +13°C° 0 mm 1 mps 749 mmHg 88%
    02:00 +12°C° 0 mm 1 mps 749 mmHg 90%
    03:00 +12°C° 0 mm 1 mps 748 mmHg 91%
    04:00 +12°C° 0 mm 1 mps 748 mmHg 92%
    05:00 +11°C° 0 mm 1 mps 748 mmHg 93%
    06:00 +11°C° 0 mm 1 mps 748 mmHg 94%
    07:00 +10°C° 0 mm 0 mps 748 mmHg 94%
    08:00 +10°C° 0 mm 0 mps 748 mmHg 94%
    09:00 +13°C° 0 mm 1 mps 748 mmHg 87%
    10:00 +15°C° 0 mm 1 mps 749 mmHg 80%
    11:00 +17°C° 0 mm 2 mps 749 mmHg 72%
    12:00 +18°C° 0 mm 2 mps 748 mmHg 67%
    13:00 +19°C° 0 mm 2 mps 748 mmHg 62%
    14:00 +20°C° 0 mm 2 mps 748 mmHg 57%
    15:00 +19°C° 0 mm 2 mps 747 mmHg 61%
    16:00 +18°C° 0 mm 2 mps 747 mmHg 64%
    17:00 +17°C° 0 mm 2 mps 747 mmHg 67%
    18:00 +16°C° 0 mm 2 mps 747 mmHg 70%
    19:00 +15°C° 0 mm 2 mps 747 mmHg 72%
    20:00 +13°C° 0 mm 3 mps 747 mmHg 74%
    21:00 +13°C° 0 mm 3 mps 747 mmHg 76%
    22:00 +13°C° 0 mm 3 mps 748 mmHg 77%
    23:00 +12°C° 0 mm 3 mps 748 mmHg 78%
    Show more